sat.trackr.live / text

‹ back to catalog

STARLINK-2567

NORAD 48276 · 2021-036A

PAYLOAD ACTIVE UNKNOWN

§ Identity

Operator
Country
US
Launch date
2021-04-29
Launch site
AFETR
Launch vehicle
Mass (kg)
RCS (m²)

Purposes: comms

External: N2YO · Heavens-Above · Gunter

§ Orbital elements

Epoch: 2026-09-09T08:35:13.951104Z

Period
94.01 min
Inclination
53.1592°
Eccentricity
0.0001072
Mean motion
15.31701260 rev/d
Perigee alt
470.0 km
Apogee alt
471.5 km
Semi-major
6,848.9 km
B*
1.0455e-5
RAAN
276.1895°
Arg perigee
78.2593°
Mean anomaly
281.8528°
Rev number
29,688

§ Raw data

STARLINK-25671 48276U 21036A   26252.35780036 -.00000041  00000+0  10455-4 0  99922 48276  53.1592 276.1895 0001072  78.2593 281.8528 15.31701260296889

JSON: /api/v1/satellites/48276 · /tle

For live sub-satellite position, see the globe view (requires WebGL).

§ Visibility from observer

Set your observer location to see the next 7 days of passes ≥ 10°. The values pass through the URL so the page stays shareable.

No JS? Fill the form by hand. The geolocation button needs JavaScript.